Location: Auttagershofen
(48.1940°N, 10.0237°E)
Time: 09:31:47
(UTC+00:00)

SeaSat 1 - Pass Details

Date: 18 January 2026
Orbit: 737 x 740 km, 108.0° (Epoch: 15 February)

Event Time Altitude Azimuth Distance (km) Brightness Sun altitude
Rises 05:27:38 0° 33° (NNE) 3,184 6.0 -15.6°
Reaches altitude 10° 05:30:00 10° 40° (NE) 2,257 5.3 -15.2°
Maximum altitude 05:34:42 45° 113° (ESE) 1,010 3.7 -14.4°
Drops below altitude 10° 05:39:22 10° 186° (S) 2,242 5.0 -13.7°
Sets 05:41:42 0° 192° (SSW) 3,161 5.7 -13.3°
